When you browse on this site, cookies collect data to enhance your experience and personalize the content and advertising you see.
Visit our Privacy Policy to learn more. By continuing to use the site, you agree to this use of cookies and data.
  • In Hungary
  • List of Countries
  • For 7 days
  • Water Temperature
  • Satellite Maps
  • Weather Map
  • News
  • Weather Widgets
  • user-avatar
    Login

    Hourly Weather Kish

    Today, 24 February, Sunday

    Time Temperature Precipitation Wind Pressure Humidity
    00:00 +22°C° 0 mm 1 mps 760 mmHg 59%
    01:00 +21°C° 0 mm 2 mps 760 mmHg 59%
    02:00 +21°C° 0 mm 2 mps 760 mmHg 57%
    03:00 +21°C° 0 mm 2 mps 760 mmHg 56%
    04:00 +20°C° 0 mm 2 mps 760 mmHg 54%
    05:00 +20°C° 0 mm 2 mps 760 mmHg 53%
    06:00 +20°C° 0 mm 2 mps 760 mmHg 52%
    07:00 +20°C° 0 mm 2 mps 760 mmHg 51%
    08:00 +21°C° 0 mm 2 mps 760 mmHg 46%
    09:00 +24°C° 0 mm 2 mps 760 mmHg 41%
    10:00 +25°C° 0 mm 2 mps 761 mmHg 36%
    11:00 +26°C° 0 mm 2 mps 760 mmHg 35%
    12:00 +26°C° 0 mm 2 mps 760 mmHg 33%
    13:00 +27°C° 0 mm 3 mps 760 mmHg 31%
    14:00 +27°C° 0 mm 3 mps 760 mmHg 32%
    15:00 +27°C° 0 mm 4 mps 759 mmHg 33%
    16:00 +27°C° 0 mm 5 mps 759 mmHg 34%
    17:00 +27°C° 0 mm 5 mps 759 mmHg 38%
    18:00 +26°C° 0 mm 5 mps 759 mmHg 43%
    19:00 +25°C° 0 mm 5 mps 759 mmHg 47%
    20:00 +23°C° 0 mm 5 mps 759 mmHg 48%
    21:00 +23°C° 0 mm 5 mps 759 mmHg 48%
    22:00 +23°C° 0 mm 5 mps 759 mmHg 49%
    23:00 +23°C° 0 mm 5 mps 759 mmHg 50%

    Tomorrow, 25 February, Monday

    Time Temperature Precipitation Wind Pressure Humidity
    00:00 +22°C° 0 mm 5 mps 759 mmHg 51%
    01:00 +22°C° 0 mm 6 mps 759 mmHg 51%
    02:00 +22°C° 0 mm 6 mps 759 mmHg 51%
    03:00 +22°C° 0 mm 6 mps 759 mmHg 51%
    04:00 +22°C° 0 mm 6 mps 759 mmHg 51%
    05:00 +21°C° 0 mm 6 mps 759 mmHg 50%
    06:00 +21°C° 0 mm 7 mps 759 mmHg 50%
    07:00 +21°C° 0 mm 7 mps 759 mmHg 50%
    08:00 +22°C° 0 mm 7 mps 760 mmHg 45%
    09:00 +23°C° 0 mm 8 mps 760 mmHg 40%
    10:00 +24°C° 0 mm 8 mps 760 mmHg 35%
    11:00 +26°C° 0 mm 9 mps 760 mmHg 33%
    12:00 +26°C° 0 mm 10 mps 760 mmHg 30%
    13:00 +27°C° 0 mm 11 mps 759 mmHg 28%
    14:00 +27°C° 0 mm 12 mps 759 mmHg 30%
    15:00 +26°C° 0 mm 12 mps 758 mmHg 32%
    16:00 +26°C° 0 mm 13 mps 758 mmHg 33%
    17:00 +24°C° 0 mm 12 mps 758 mmHg 39%
    18:00 +23°C° 0 mm 12 mps 758 mmHg 44%
    19:00 +22°C° 0 mm 12 mps 758 mmHg 49%
    20:00 +21°C° 0 mm 12 mps 759 mmHg 51%
    21:00 +21°C° 0 mm 11 mps 759 mmHg 53%
    22:00 +21°C° 0 mm 11 mps 759 mmHg 55%
    23:00 +19°C° 0 mm 11 mps 759 mmHg 54%

    Day after tomorrow, 26 February, Tuesday

    Time Temperature Precipitation Wind Pressure Humidity
    00:00 +19°C° 0 mm 10 mps 759 mmHg 54%
    01:00 +19°C° 0 mm 10 mps 759 mmHg 54%
    02:00 +19°C° 0 mm 10 mps 759 mmHg 52%
    03:00 +18°C° 0 mm 10 mps 758 mmHg 50%
    04:00 +18°C° 0 mm 10 mps 758 mmHg 48%
    05:00 +18°C° 0 mm 9 mps 758 mmHg 46%
    06:00 +18°C° 0 mm 9 mps 758 mmHg 43%
    07:00 +18°C° 0 mm 9 mps 759 mmHg 41%
    08:00 +20°C° 0 mm 8 mps 759 mmHg 36%
    09:00 +21°C° 0 mm 8 mps 759 mmHg 32%
    10:00 +23°C° 0 mm 7 mps 760 mmHg 27%
    11:00 +24°C° 0 mm 6 mps 760 mmHg 25%
    12:00 +26°C° 0 mm 5 mps 759 mmHg 23%
    13:00 +27°C° 0 mm 4 mps 759 mmHg 22%
    14:00 +27°C° 0 mm 3 mps 758 mmHg 22%
    15:00 +27°C° 0 mm 3 mps 758 mmHg 23%
    16:00 +27°C° 0 mm 3 mps 757 mmHg 24%
    17:00 +26°C° 0 mm 4 mps 757 mmHg 32%
    18:00 +25°C° 0 mm 4 mps 757 mmHg 40%
    19:00 +22°C° 0 mm 4 mps 757 mmHg 49%
    20:00 +22°C° 0 mm 4 mps 758 mmHg 51%
    21:00 +22°C° 0 mm 3 mps 758 mmHg 53%
    22:00 +21°C° 0 mm 2 mps 758 mmHg 55%
    23:00 +21°C° 0 mm 2 mps 758 mmHg 51%

    27 February, Wednesday

    Time Temperature Precipitation Wind Pressure Humidity
    00:00 +21°C° 0 mm 2 mps 758 mmHg 48%
    01:00 +21°C° 0 mm 2 mps 758 mmHg 44%
    02:00 +22°C° 0 mm 1 mps 757 mmHg 44%
    03:00 +21°C° 0 mm 1 mps 757 mmHg 44%
    04:00 +19°C° 0 mm 0 mps 757 mmHg 44%
    05:00 +19°C° 0 mm 0 mps 757 mmHg 44%
    06:00 +21°C° 0 mm 1 mps 757 mmHg 44%
    07:00 +21°C° 0 mm 1 mps 757 mmHg 45%
    08:00 +21°C° 0 mm 2 mps 758 mmHg 44%
    09:00 +23°C° 0 mm 2 mps 758 mmHg 44%
    10:00 +22°C° 0 mm 3 mps 758 mmHg 43%
    11:00 +24°C° 0 mm 3 mps 758 mmHg 42%
    12:00 +25°C° 0 mm 3 mps 758 mmHg 40%
    13:00 +26°C° 0 mm 3 mps 757 mmHg 38%
    14:00 +26°C° 0 mm 2 mps 757 mmHg 41%
    15:00 +25°C° 0 mm 2 mps 757 mmHg 43%
    16:00 +25°C° 0 mm 1 mps 757 mmHg 46%
    17:00 +25°C° 0 mm 2 mps 757 mmHg 45%
    18:00 +24°C° 0 mm 2 mps 757 mmHg 45%
    19:00 +24°C° 0 mm 2 mps 757 mmHg 44%
    20:00 +22°C° 0.1 mm 3 mps 758 mmHg 46%
    21:00 +22°C° 0.1 mm 4 mps 758 mmHg 48%
    22:00 +21°C° 0.1 mm 4 mps 759 mmHg 51%
    23:00 +21°C° 0.2 mm 4 mps 758 mmHg 56%

    28 February, Thursday

    Time Temperature Precipitation Wind Pressure Humidity
    00:00 +21°C° 0.2 mm 3 mps 758 mmHg 61%
    01:00 +20°C° 0.2 mm 3 mps 757 mmHg 66%
    02:00 +21°C° 0 mm 3 mps 757 mmHg 68%
    03:00 +21°C° 0 mm 3 mps 757 mmHg 69%
    04:00 +21°C° 0 mm 3 mps 757 mmHg 70%
    05:00 +21°C° 0 mm 3 mps 757 mmHg 71%
    06:00 +21°C° 0 mm 3 mps 757 mmHg 72%
    07:00 +21°C° 0 mm 3 mps 758 mmHg 73%
    08:00 +21°C° 0 mm 3 mps 758 mmHg 70%
    09:00 +21°C° 0 mm 4 mps 758 mmHg 67%
    10:00 +22°C° 0 mm 4 mps 759 mmHg 64%
    11:00 +22°C° 0 mm 3 mps 758 mmHg 60%
    12:00 +24°C° 0 mm 3 mps 758 mmHg 57%
    13:00 +24°C° 0 mm 2 mps 758 mmHg 54%
    14:00 +24°C° 0 mm 2 mps 757 mmHg 54%
    15:00 +24°C° 0 mm 2 mps 757 mmHg 54%
    16:00 +24°C° 0 mm 1 mps 756 mmHg 53%
    17:00 +24°C° 0 mm 2 mps 756 mmHg 56%
    18:00 +22°C° 0 mm 3 mps 756 mmHg 59%
    19:00 +22°C° 0 mm 4 mps 756 mmHg 61%
    20:00 +22°C° 0 mm 4 mps 757 mmHg 61%
    21:00 +21°C° 0 mm 4 mps 757 mmHg 62%
    22:00 +21°C° 0 mm 4 mps 757 mmHg 62%
    23:00 +21°C° 0 mm 4 mps 757 mmHg 61%

    1 March, Friday

    Time Temperature Precipitation Wind Pressure Humidity
    00:00 +20°C° 0 mm 4 mps 756 mmHg 59%
    01:00 +20°C° 0 mm 5 mps 756 mmHg 58%
    02:00 +20°C° 0 mm 4 mps 756 mmHg 56%
    03:00 +19°C° 0 mm 3 mps 755 mmHg 54%
    04:00 +19°C° 0 mm 3 mps 755 mmHg 52%
    05:00 +19°C° 0 mm 2 mps 755 mmHg 51%
    06:00 +19°C° 0 mm 2 mps 755 mmHg 51%
    07:00 +18°C° 0 mm 2 mps 755 mmHg 50%
    08:00 +21°C° 0 mm 1 mps 755 mmHg 45%
    09:00 +22°C° 0 mm 1 mps 756 mmHg 40%
    10:00 +22°C° 0 mm 0 mps 756 mmHg 35%
    11:00 +24°C° 0 mm 1 mps 756 mmHg 35%
    12:00 +25°C° 0 mm 2 mps 755 mmHg 34%
    13:00 +26°C° 0 mm 3 mps 754 mmHg 34%
    14:00 +26°C° 0 mm 3 mps 754 mmHg 34%
    15:00 +26°C° 0 mm 3 mps 753 mmHg 34%
    16:00 +26°C° 0 mm 4 mps 753 mmHg 34%
    17:00 +26°C° 0 mm 4 mps 753 mmHg 38%
    18:00 +25°C° 0 mm 4 mps 753 mmHg 43%
    19:00 +23°C° 0 mm 4 mps 753 mmHg 47%
    20:00 +23°C° 0 mm 4 mps 753 mmHg 49%
    21:00 +23°C° 0 mm 4 mps 753 mmHg 51%
    22:00 +22°C° 0 mm 4 mps 753 mmHg 52%
    23:00 +22°C° 0 mm 3 mps 753 mmHg 50%
    Show more